#timestamp,LO_Frequency,Hit,StdDev 
1507626015.4,286046996.2,N
1507626035.2,286046997.1,N
1507626055.1,286047001.2,N
1507626056.0,286047001.2,N
1507626075.8,286047000.1,N
1507626095.6,286047001.1,N
1507626115.5,286047001.2,N
1507626135.3,286046995.2,N
1507626155.1,286046994.9,N
1507626175.9,286046995.1,N
1507626195.7,286046995.5,N
1507626215.5,286046997.3,N
1507626235.4,286046995.2,N
1507626255.2,286047000.8,N
1507626275.0,286046997.8,N
1507626275.9,286046997.8,N
1507626295.7,286046999.6,N
1507626315.6,286046994.0,N
1507626335.4,286046994.7,N
1507626355.2,286046994.7,N
1507626375.1,286046993.8,N
1507626376.0,286046993.8,N
1507626395.8,286046992.7,N
1507626415.6,286046994.8,N
1507626435.5,286046990.3,N
1507626455.3,286046988.7,Y
1507626475.1,286046992.1,P
1507626495.9,286046994.6,N
1507626515.7,286046996.2,N
1507626535.5,286046994.5,N
1507626555.4,286046996.0,N
1507626575.2,286046995.2,N
1507626595.0,286046996.7,N
1507626595.9,286046996.7,N
1507626615.8,286046999.1,N
1507626635.6,286047001.9,N
1507626655.4,286047004.9,N
1507626675.3,286047002.1,N
1507626695.1,286047001.6,N
1507626696.0,286047001.6,N
1507626715.8,286047002.7,N
1507626735.6,286046999.4,N
1507626755.5,286046995.7,N
1507626775.3,286046998.9,N
1507626795.1,286047000.5,N
1507626815.9,286047004.3,N
1507626835.7,286047001.6,N
1507626855.5,286047005.5,N
1507626875.4,286047002.6,N
1507626895.2,286047000.3,N
1507626915.0,286047000.5,N
1507626915.9,286047000.5,N
1507626935.8,286047003.5,N
1507626955.6,286047003.6,N
1507626975.4,286047002.9,N
1507626995.3,286047004.3,N
1507627015.1,286047002.2,N
1507627016.0,286047002.2,N
1507627035.8,286047003.0,N
1507627055.7,286047007.0,N
1507627075.5,286047003.6,N
1507627095.3,286047003.8,N
1507627115.2,286047003.4,N
1507627135.9,286047003.5,N
1507627155.7,286047001.3,N
1507627175.5,286047001.7,N
1507627195.4,286047005.7,N
1507627215.2,286047006.0,N
1507627235.0,286047003.3,N
1507627235.9,286047003.3,N
1507627255.8,286047003.5,N
1507627275.6,286047004.9,N
1507627295.4,286047006.6,N
1507627315.3,286047005.9,Y
1507627335.1,286046998.9,P
1507627355.8,286046997.4,N
1507627375.7,286046998.0,N
1507627395.5,286047000.5,N
1507627415.3,286046995.9,N
1507627435.2,286046992.9,Y
1507627455.0,286046991.9,P
1507627455.9,286046991.9,N
1507627475.7,286046993.5,N
1507627495.6,286046997.8,N
1507627515.4,286046991.7,N
1507627535.2,286046996.4,N
1507627555.1,286046996.1,N
1507627556.0,286046996.1,N
1507627575.8,286047000.8,N
1507627595.6,286046999.0,N
1507627615.5,286047000.3,N
1507627635.3,286046997.7,N
1507627655.1,286046997.4,N
1507627675.9,286047001.2,N
1507627695.7,286046995.7,N
1507627715.5,286046995.9,N
1507627735.3,286046995.3,N
1507627755.2,286046994.1,N
1507627775.0,286046996.0,N
1507627775.9,286046996.0,N
1507627795.7,286046992.9,N
1507627815.6,286046992.3,N
1507627835.4,286046995.7,N
1507627855.2,286046995.9,N
1507627875.1,286046993.5,N
1507627876.0,286046993.5,N
1507627895.8,286046995.2,N
1507627915.6,286046991.7,Y
1507627935.5,286046998.7,P
1507627955.3,286046999.2,N
1507627975.1,286046999.7,N
1507627995.9,286046996.9,N
1507628015.7,286047001.0,N
1507628035.5,286046998.7,N
1507628055.4,286047003.2,N
1507628075.2,286047003.9,N
1507628095.0,286047003.5,N
1507628095.9,286047003.5,N
1507628115.8,286047001.5,N
1507628135.6,286047005.6,N
1507628155.4,286047005.5,N
1507628175.2,286047002.9,N
1507628195.1,286047001.8,N
1507628196.0,286047001.8,N
1507628215.8,286046999.5,N
1507628235.6,286046996.6,N
1507628255.5,286047000.3,N
1507628275.3,286046994.9,N
1507628295.1,286046999.1,N
1507628315.9,286046999.4,N
1507628335.7,286046998.7,N
1507628355.5,286046999.4,N
1507628375.4,286046997.6,N
1507628395.2,286046999.6,N
1507628415.0,286046996.7,N
1507628415.9,286046996.7,N
1507628435.8,286046997.4,N
1507628455.6,286046997.4,N
1507628475.4,286046999.6,N
1507628495.2,286046999.6,N
1507628515.1,286046997.5,N
1507628516.0,286046997.5,N
1507628535.8,286046995.1,N
1507628555.6,286046995.2,N
1507628575.5,286046995.2,N
1507628595.3,286046993.9,N
1507628615.1,286046993.3,N
1507628635.9,286046994.2,N
1507628655.7,286046994.6,N
1507628675.5,286046994.8,N
1507628695.4,286046992.1,N
1507628715.2,286046990.8,Y
1507628735.0,286046994.9,P
1507628735.9,286046994.9,P
1507628755.8,286046995.8,P
1507628775.6,286046996.5,Y
1507628795.4,286047000.4,P
1507628815.3,286047001.1,N
1507628835.1,286047006.6,N
1507628836.0,286047006.6,N
1507628855.8,286047005.0,N
1507628875.7,286047005.2,N
1507628895.5,286047006.3,N
1507628915.3,286047008.2,N
1507628935.2,286047007.0,N
1507628955.9,286047007.2,N
1507628975.7,286047007.4,N
1507628995.5,286047008.8,N
1507629015.4,286047014.0,Y
1507629035.2,286047001.8,P
1507629055.0,286047001.4,N
1507629056.0,286047001.4,N
1507629075.8,286047002.6,N
1507629095.6,286046998.7,N
1507629115.4,286047000.2,N
1507629135.3,286047003.8,N
1507629155.1,286047008.2,Y
1507629175.8,286047004.2,P
1507629195.7,286047002.0,N
1507629215.5,286046998.9,N
1507629235.3,286047000.8,N
1507629255.2,286046999.6,N
1507629275.9,286046993.7,Y
1507629295.7,286046994.3,P
1507629315.6,286046994.8,N
1507629335.4,286046997.5,N
1507629355.2,286047002.1,N
1507629375.1,286047000.2,N
1507629376.0,286047000.2,N
1507629395.8,286046998.5,N
1507629415.6,286046998.4,N
1507629435.5,286046997.3,N
1507629455.3,286046999.1,N
1507629475.1,286046998.7,N
1507629495.9,286047001.2,N
1507629515.7,286047000.7,N
1507629535.5,286047003.6,N
1507629555.3,286047004.1,N
1507629575.2,286047002.0,N
1507629595.0,286047006.0,N
1507629595.9,286047006.0,N
